W4MLN-1 Weather Reports


time (UTC)temp
F
wind
direction
speed
knots
gust
knots
rain 1hr
in
rain 24hr
in
rain mn
in
humidity
%
barometer
mb
20260505035523 57 346 2.6 8.7 0.00 0.00 0.00 58 1014.1
20260505035023 56 268 1.7 5.2 0.00 0.00 0.00 62 1014.3
20260505034521 56 312 2.6 6.1 0.00 0.00 0.00 68 1014.3
20260505034020 55 324 2.6 6.1 0.00 0.00 0.00 61 1014.3
20260505033521 55 305 1.7 6.1 0.00 0.00 0.00 68 1014.4
20260505033020 55 298 1.7 6.1 0.00 0.00 0.00 65 1014.4
20260505032521 54 317 1.7 4.3 0.00 0.00 0.00 68 1014.5
20260505032021 55 300 1.7 5.2 0.00 0.00 0.00 70 1014.5
20260505031521 56 359 1.7 5.2 0.00 0.00 0.00 68 1014.5
20260505031022 56 322 1.7 5.2 0.00 0.00 0.00 62 1014.5
20260505030521 56 264 1.7 5.2 0.00 0.00 0.00 59 1014.6
20260505030022 56 321 1.7 5.2 0.00 0.00 0.00 60 1014.5
20260505025521 56 319 1.7 4.3 0.00 0.00 0.00 62 1014.7
20260505025021 56 299 1.7 4.3 0.00 0.00 0.00 62 1014.7
20260505024522 56 10 1.7 5.2 0.00 0.00 0.00 61 1014.8
20260505024019 56 297 1.7 5.2 0.00 0.00 0.00 61 1014.8
20260505023518 56 11 1.7 4.3 0.00 0.00 0.00 65 1014.8
20260505023019 56 324 1.7 4.3 0.00 0.00 0.00 67 1014.8
20260505022518 57 298 1.7 4.3 0.00 0.00 0.00 62 1014.7
20260505022019 57 11 1.7 4.3 0.00 0.00 0.00 62 1014.8
20260505021518 57 311 1.7 4.3 0.00 0.00 0.00 59 1014.7
20260505021019 58 308 1.7 4.3 0.00 0.00 0.00 58 1014.7
20260505020520 57 316 1.7 4.3 0.00 0.00 0.00 61 1014.7
20260505020019 58 0 1.7 5.2 0.00 0.00 0.00 59 1014.8
20260505015520 58 319 1.7 6.1 0.00 0.00 0.00 63 1014.7
20260505015016 59 332 1.7 6.1 0.00 0.00 0.00 61 1014.7
20260505014517 60 297 1.7 5.2 0.00 0.00 0.00 57 1014.7
20260505014013 60 321 1.7 5.2 0.00 0.00 0.00 56 1014.7
20260505013510 61 14 1.7 5.2 0.00 0.00 0.00 54 1014.6
20260505013011 62 305 1.7 5.2 0.00 0.00 0.00 54 1014.6
20260505012510 63 310 1.7 6.1 0.00 0.00 0.00 51 1014.5
20260505012011 63 280 2.6 6.1 0.00 0.00 0.00 49 1014.4
20260505011511 63 213 1.7 5.2 0.00 0.00 0.00 49 1014.3
20260505011011 63 329 1.7 7.0 0.00 0.00 0.00 49 1014.1
20260505010512 63 143 1.7 7.0 0.00 0.00 0.00 48 1014.3
20260505010011 63 224 1.7 5.2 0.00 0.00 0.00 49 1014.1
20260505005512 64 44 1.7 5.2 0.00 0.00 0.00 48 1014.0
20260505005008 64 51 1.7 5.2 0.00 0.00 0.00 48 1014.0
20260505004506 64 80 0.9 3.5 0.00 0.00 0.00 49 1013.8
20260505004006 64 75 1.7 7.8 0.00 0.00 0.00 48 1013.8
20260505003504 64 270 1.7 7.8 0.00 0.00 0.00 47 1013.7
20260505003004 64 78 1.7 4.3 0.00 0.00 0.00 48 1013.6
20260505002503 64 265 1.7 3.5 0.00 0.00 0.00 48 1013.5
20260505002004 65 282 1.7 3.5 0.00 0.00 0.00 48 1013.5
20260505001503 65 43 1.7 7.0 0.00 0.00 0.00 47 1013.5
20260505001004 65 134 2.6 7.0 0.00 0.00 0.00 46 1013.5
20260505000504 66 126 2.6 7.0 0.00 0.00 0.00 46 1013.5
20260505000004 66 108 1.7 6.1 0.00 0.00 0.00 48 1013.6
20260504235503 66 110 1.7 3.5 0.00 0.00 0.00 48 1013.6
20260504235003 66 73 1.7 4.3 0.00 0.00 0.00 47 1013.5
20260504234501 67 200 2.6 7.8 0.00 0.00 0.00 46 1013.5
20260504234000 67 91 2.6 7.8 0.00 0.00 0.00 46 1013.4
20260504233501 67 24 2.6 7.0 0.00 0.00 0.00 46 1013.4
20260504233000 67 127 2.6 6.1 0.00 0.00 0.00 45 1013.4
20260504232501 67 72 1.7 7.0 0.00 0.00 0.00 46 1013.4
20260504232001 68 171 1.7 7.0 0.00 0.00 0.00 45 1013.3
20260504231501 68 87 1.7 5.2 0.00 0.00 0.00 46 1013.3
20260504231001 69 97 1.7 6.1 0.00 0.00 0.00 44 1013.3
20260504230501 69 123 1.7 6.1 0.00 0.00 0.00 44 1013.2
20260504230001 69 96 2.6 7.8 0.00 0.00 0.00 44 1013.3
20260504225458 69 238 2.6 7.8 0.00 0.00 0.00 44 1013.3
20260504224959 68 106 2.6 7.8 0.00 0.00 0.00 45 1013.3
20260504224455 68 162 2.6 5.2 0.00 0.00 0.00 45 1013.3
20260504223955 68 94 2.6 7.8 0.00 0.00 0.00 45 1013.3
20260504223456 68 137 2.6 7.8 0.00 0.00 0.00 46 1013.4
20260504222956 68 50 1.7 5.2 0.00 0.00 0.00 46 1013.4
20260504222455 68 103 1.7 6.1 0.00 0.00 0.00 46 1013.3
20260504221956 69 120 1.7 6.1 0.00 0.00 0.00 47 1013.3
20260504221456 69 118 2.6 5.2 0.00 0.00 0.00 46 1013.3
20260504220956 70 213 2.6 6.1 0.00 0.00 0.00 45 1013.4
20260504220456 70 260 2.6 6.1 0.00 0.00 0.00 45 1013.3
20260504215956 71 61 2.6 6.1 0.00 0.00 0.00 46 1013.4
20260504215453 71 141 2.6 7.8 0.00 0.00 0.00 45 1013.3
20260504214953 71 18 2.6 7.8 0.00 0.00 0.00 44 1013.4
20260504214454 72 224 1.7 7.0 0.00 0.00 0.00 44 1013.3
20260504213953 72 89 1.7 6.1 0.00 0.00 0.00 45 1013.4
20260504213454 71 253 1.7 6.1 0.00 0.00 0.00 45 1013.3
20260504212953 72 194 2.6 7.8 0.00 0.00 0.00 46 1013.4
20260504212454 72 156 2.6 7.8 0.00 0.00 0.00 46 1013.4
20260504211955 71 337 3.5 7.8 0.00 0.00 0.00 46 1013.4
20260504211454 71 293 3.5 7.8 0.00 0.00 0.00 47 1013.4
20260504210955 71 323 2.6 7.8 0.00 0.00 0.00 47 1013.5
20260504210454 71 0 1.7 7.8 0.00 0.00 0.00 46 1013.5
20260504205952 71 322 1.7 7.8 0.00 0.00 0.00 48 1013.4
20260504205452 71 263 1.7 6.1 0.00 0.00 0.00 49 1013.5
20260504204952 70 241 2.6 8.7 0.00 0.00 0.00 48 1013.6
20260504204452 69 267 4.3 9.6 0.00 0.00 0.00 49 1013.6
20260504203952 69 316 3.5 9.6 0.00 0.00 0.00 48 1013.7
20260504203452 69 283 3.5 7.8 0.00 0.00 0.00 49 1013.7
20260504202952 70 316 3.5 7.8 0.00 0.00 0.00 47 1013.7
20260504202452 70 186 2.6 7.8 0.00 0.00 0.00 48 1013.9
20260504201952 69 331 3.5 7.8 0.00 0.00 0.00 51 1013.9
20260504201452 69 282 3.5 7.8 0.00 0.00 0.00 50 1014.0
20260504200953 69 211 2.6 7.8 0.00 0.00 0.00 51 1013.9
20260504200452 69 187 3.5 7.8 0.00 0.00 0.00 51 1014.1
20260504195950 68 148 4.3 13.9 0.00 0.00 0.00 51 1014.3
20260504195449 68 246 4.3 13.9 0.00 0.00 0.00 52 1014.4
20260504194946 68 308 5.2 13.0 0.00 0.00 0.00 51 1014.4
20260504194447 68 333 4.3 13.0 0.00 0.00 0.00 53 1014.4
20260504193947 69 302 3.5 9.6 0.00 0.00 0.00 53 1014.5
20260504193447 69 176 2.6 7.8 0.00 0.00 0.00 52 1014.6
20260504192947 68 170 2.6 7.8 0.00 0.00 0.00 56 1014.7
20260504192447 68 189 3.5 8.7 0.00 0.00 0.00 54 1014.8
20260504191947 67 286 5.2 11.3 0.00 0.00 0.00 54 1014.8
20260504191447 67 301 4.3 11.3 0.00 0.00 0.00 53 1014.9
20260504190948 67 250 3.5 7.0 0.00 0.00 0.00 55 1015.0
20260504190447 66 315 4.3 9.6 0.00 0.00 0.00 54 1015.0
20260504185948 66 243 4.3 9.6 0.00 0.00 0.00 54 1015.2
20260504185444 67 223 4.3 9.6 0.00 0.00 0.00 53 1015.2
20260504184942 67 10 3.5 9.6 0.00 0.00 0.00 53 1015.3
20260504184441 66 296 3.5 9.6 0.00 0.00 0.00 56 1015.3
20260504183942 66 260 3.5 8.7 0.00 0.00 0.00 54 1015.4
20260504183442 65 312 4.3 9.6 0.00 0.00 0.00 53 1015.4
20260504182942 65 289 3.5 9.6 0.00 0.00 0.00 53 1015.4
20260504182442 65 288 2.6 7.0 0.00 0.00 0.00 55 1015.7
20260504181942 64 238 2.6 7.8 0.00 0.00 0.00 53 1015.6
20260504181442 64 257 4.3 12.2 0.00 0.00 0.00 53 1015.6
20260504180942 65 288 4.3 12.2 0.00 0.00 0.00 54 1015.7
20260504180440 65 314 4.3 13.0 0.00 0.00 0.00 54 1015.7
20260504175940 65 317 5.2 13.0 0.00 0.00 0.00 54 1015.6
20260504175437 65 297 3.5 10.4 0.00 0.00 0.00 53 1015.7
20260504174937 66 347 3.5 8.7 0.00 0.00 0.00 53 1015.7
20260504174436 65 300 3.5 8.7 0.00 0.00 0.00 54 1015.6
20260504173937 65 315 4.3 11.3 0.00 0.00 0.00 55 1015.7
20260504173437 65 235 5.2 12.2 0.00 0.00 0.00 52 1015.8
20260504172937 65 317 4.3 12.2 0.00 0.00 0.00 54 1015.8
20260504172437 66 301 3.5 12.2 0.00 0.00 0.00 52 1015.7
20260504171937 65 184 3.5 8.7 0.00 0.00 0.00 54 1015.7
20260504171437 65 263 3.5 12.2 0.00 0.00 0.00 52 1015.7
20260504170937 64 44 3.5 12.2 0.00 0.00 0.00 53 1015.8
20260504170437 64 267 3.5 8.7 0.00 0.00 0.00 53 1015.8
20260504160429 62 269 3.5 7.8 0.00 0.00 0.00 57 1016.1
20260504150925 55 202 1.7 5.2 0.00 0.00 0.00 68 1017.4
20260504150425 55 42 2.6 8.7 0.00 0.00 0.00 68 1017.5
20260504140920 56 306 4.3 14.8 0.00 0.00 0.00 57 1017.7
20260504140417 56 297 4.3 9.6 0.00 0.00 0.00 56 1017.5
20260504130415 44 21 0.0 1.7 0.00 0.00 0.00 81 1017.0
20260504110334 31 0 0.0 0.9 0.00 0.00 0.00 100 1016.4
20260504100319 31 319 0.9 1.7 0.00 0.00 0.00 99 1016.5
20260504081752 33 316 2.6 4.3 0.00 0.00 0.00 97 1016.3
20260504081252 33 306 1.7 4.3 0.00 0.00 0.00 97 1016.3
20260504080752 33 313 2.6 4.3 0.00 0.00 0.00 97 1016.3
20260504080238 33 305 2.6 5.2 0.00 0.00 0.00 97 1016.2
20260504070222 33 311 3.5 5.2 0.00 0.00 0.00 96 1016.4
20260504060221 35 347 1.7 2.6 0.00 0.00 0.00 93 1017.0
20260504050720 36 293 0.0 1.7 0.00 0.00 0.00 90 1016.9
20260504050220 36 291 0.0 1.7 0.00 0.00 0.00 90 1016.9
20260504045720 36 11 0.0 1.7 0.00 0.00 0.00 90 1016.9
20260504045220 36 298 0.0 1.7 0.00 0.00 0.00 89 1016.9
20260504044720 36 0 0.9 2.6 0.00 0.00 0.00 89 1016.9
20260504044220 37 10 0.9 3.5 0.00 0.00 0.00 89 1016.9
20260504043720 37 304 1.7 3.5 0.00 0.00 0.00 87 1016.7
20260504043220 37 354 0.9 1.7 0.00 0.00 0.00 87 1016.9
20260504042721 37 335 0.9 1.7 0.00 0.00 0.00 88 1016.9
20260504042218 37 299 0.9 2.6 0.00 0.00 0.00 87 1016.9
20260504041717 37 0 0.9 2.6 0.00 0.00 0.00 87 1017.0
20260504041214 38 285 0.9 1.7 0.00 0.00 0.00 86 1017.0
20260504040714 38 0 0.0 1.7 0.00 0.00 0.00 86 1017.0
20260504040211 38 267 0.9 1.7 0.00 0.00 0.00 86 1017.0